Weather History for KDSM - November, 2010

Change the Weather History Date:

Monday, November 22, 2010

  Actual Average Record
Temperature  
Mean Temperature 34 °F 36 °F  
Max Temperature 39 °F 44 °F 69 °F (1966)
Min Temperature 29 °F 27 °F 0 °F (1937)
Degree Days  
Heating Degree Days 31 29  
Month to date heating degree days 448 520  
Since 1 July heating degree days 744 1004  
Cooling Degree Days 0 0  
Month to date cooling degree days 0 0  
Year to date cooling degree days 1379 1066  
Moisture  
Dew Point 31 °F    
Average Humidity 86    
Maximum Humidity 100    
Minimum Humidity 72    
Precipitation  
Precipitation 0.01 in 0.06 in 1.12 in (1884)
Month to date precipitation 2.11 1.68  
Year to date precipitation 50.82 34.09  
Snow  
Snow T in 0.10 in 3.60 in (1991)
Month to date snowfall T 1.2  
Since 1 July snowfall T 1.6  
Since 1 September snowfall T 1.6  
Snow Depth 0.00 in    
Sea Level Pressure  
Sea Level Pressure 29.84 in    
Wind  
Wind Speed 12 mph (NNW)    
Max Wind Speed 24 mph    
Max Gust Speed 29 mph    
Visibility 6 miles    
Events Rain , Snow    
T = Trace of Precipitation, MM = Missing Value Source: NWS Daily Summary

Daily Weather History Graph

Daily Weather History Graph

Search for Another Location

Airport or City:

Trip Planner

Search our weather history database for the weather conditions in past years. The results will help you decide how hot, cold, wet, or windy it might be!

Date:

Astronomy

Nov. 22, 2010 Rise Set
Actual Time 7:11 AM CST 4:49 PM CST
Civil Twilight 6:41 AM CST 5:19 PM CST
Nautical Twilight 6:07 AM CST 5:53 PM CST
Astronomical Twilight 5:34 AM CST 6:26 PM CST
Moon 5:30 PM CST (11/22) 8:15 AM CST (11/22)
Length of Visible Light 10h 38m
Length of Day
9h 37m
Full, 99% of the Moon is Illuminated
Nov 22
Full
Nov 28
Last Quarter
Dec 5
New
Dec 13
First Quarter
Dec 21
Full

Hourly Weather History & Observations

Time (CST) Temp. Windchill Dew Point Humidity Pressure Visibility Wind Dir Wind Speed Gust Speed Precip Events Conditions
12:54 AM 36.0 °F 30.3 °F 33.1 °F 89% 29.85 in 5.0 mi NE 6.9 mph - N/A   Overcast
1:54 AM 36.0 °F 30.3 °F 33.1 °F 89% 29.85 in 9.0 mi ENE 6.9 mph - 0.00 in Rain , Snow Light Rain
2:54 AM 36.0 °F 31.1 °F 33.1 °F 89% 29.82 in 9.0 mi East 5.8 mph - 0.00 in   Overcast
3:47 AM 35.6 °F 29.9 °F 33.8 °F 93% 29.78 in 2.5 mi ENE 6.9 mph - 0.00 in   Light Drizzle
3:54 AM 36.0 °F 30.3 °F 34.0 °F 93% 29.80 in 2.5 mi ENE 6.9 mph - 0.00 in   Light Drizzle
4:12 AM 35.6 °F 29.9 °F 33.8 °F 93% 29.77 in 2.5 mi East 6.9 mph - 0.00 in   Light Drizzle
4:30 AM 35.6 °F 29.9 °F 33.8 °F 93% 29.77 in 1.8 mi East 6.9 mph - 0.00 in   Light Drizzle
4:54 AM 36.0 °F 30.3 °F 34.0 °F 93% 29.78 in 2.0 mi East 6.9 mph - 0.01 in Rain Light Rain
5:54 AM 37.0 °F 34.5 °F 35.1 °F 93% 29.74 in 2.0 mi East 3.5 mph - 0.00 in   Light Drizzle
6:54 AM 37.0 °F 29.8 °F 35.1 °F 93% 29.69 in 2.0 mi ESE 10.4 mph - 0.00 in   Light Drizzle
7:54 AM 37.9 °F 35.5 °F 36.0 °F 93% 29.70 in 2.0 mi NNE 3.5 mph - 0.00 in   Light Drizzle
8:33 AM 37.4 °F 34.9 °F 37.4 °F 100% 29.68 in 1.5 mi North 3.5 mph - 0.00 in   Light Drizzle
8:44 AM 37.4 °F 34.9 °F 35.6 °F 93% 29.68 in 1.2 mi NNW 3.5 mph - 0.00 in   Light Drizzle
8:54 AM 37.9 °F 32.1 °F 36.0 °F 93% 29.70 in 1.0 mi NW 8.1 mph - 0.00 in   Light Drizzle
9:54 AM 37.9 °F 32.7 °F 37.0 °F 97% 29.71 in 1.0 mi NW 6.9 mph - 0.00 in   Light Drizzle
10:54 AM 37.9 °F 28.9 °F 36.0 °F 93% 29.73 in 1.0 mi NW 16.1 mph - 0.00 in   Light Drizzle
11:31 AM 37.4 °F 26.9 °F 35.6 °F 93% 29.73 in 5.0 mi NW 20.7 mph 25.3 mph 0.00 in   Overcast
11:54 AM 37.0 °F 25.9 °F 34.0 °F 89% 29.78 in 8.0 mi WNW 23.0 mph 28.8 mph 0.00 in   Overcast
12:54 PM 35.1 °F 24.5 °F 32.0 °F 89% 29.80 in 10.0 mi NW 18.4 mph - N/A   Overcast
1:54 PM 37.0 °F 28.1 °F 32.0 °F 82% 29.80 in 10.0 mi WNW 15.0 mph 25.3 mph N/A   Overcast
2:10 PM 35.6 °F 25.2 °F 30.2 °F 81% 29.78 in 10.0 mi NW 18.4 mph - N/A   Overcast
2:54 PM 36.0 °F 26.3 °F 28.9 °F 76% 29.83 in 10.0 mi WNW 16.1 mph - N/A   Overcast
3:54 PM 34.0 °F 25.0 °F 28.0 °F 79% 29.87 in 10.0 mi WNW 12.7 mph - N/A   Overcast
4:54 PM 33.1 °F 22.2 °F 26.1 °F 75% 29.89 in 10.0 mi NW 17.3 mph - N/A   Overcast
5:54 PM 32.0 °F 21.2 °F 24.1 °F 73% 29.93 in 10.0 mi NW 16.1 mph 21.9 mph N/A   Overcast
6:54 PM 30.9 °F 19.1 °F 23.0 °F 72% 29.98 in 10.0 mi NW 18.4 mph - N/A   Overcast
7:54 PM 30.0 °F 18.3 °F 23.0 °F 75% 30.02 in 10.0 mi WNW 17.3 mph - N/A   Overcast
8:54 PM 30.9 °F 19.4 °F 23.0 °F 72% 30.04 in 10.0 mi NW 17.3 mph 25.3 mph N/A   Overcast
9:54 PM 30.0 °F 20.5 °F 23.0 °F 75% 30.04 in 10.0 mi NW 11.5 mph - N/A   Mostly Cloudy
10:22 PM 28.4 °F 19.7 °F 23.0 °F 80% 30.03 in 10.0 mi WNW 9.2 mph - N/A   Partly Cloudy
10:54 PM 28.9 °F 21.1 °F 21.9 °F 75% 30.06 in 10.0 mi West 8.1 mph - N/A   Mostly Cloudy
11:54 PM 30.0 °F 19.1 °F 21.9 °F 72% 30.10 in 10.0 mi WNW 15.0 mph - N/A   Overcast